Location: Favalello
(42.2939°N, 9.2706°E)
Time: 10:35:30
(UTC+00:00)

Cosmos 1092 Rocket - Pass Details

Date: 06 December 2019
Orbit: 953 x 996 km, 83.0° (Epoch: 21 January)

Event Time Altitude Azimuth Distance (km) Brightness Sun altitude
Rises 16:57:32 0° 163° (SSE) 3,697 7.1 -12.1°
Reaches altitude 10° 17:00:12 10° 157° (SSE) 2,750 6.3 -12.5°
Maximum altitude 17:06:01 41° 89° (E) 1,401 4.4 -13.5°
Drops below altitude 10° 17:11:51 10° 22° (NNE) 2,746 6.0 -14.6°
Sets 17:14:29 0° 15° (NNE) 3,692 6.7 -15.0°
